Overview Statistics Trail Chart Weather Telemetry Raw packets
 

This is the latest recevied weather packets stored in our database for station/object EA2MKR. If no packets are shown the sender has not sent any weather packets the latest 10 day(s).

<< 94 95 96 97 98 99 100 >>
Time Temp. Humidity Pressure Rain* Wind** Luminosity Snow
1787928669 23.89° C 40% 955.9 hPa 0 mm - - -
1787928369 23.89° C 40% 955.8 hPa 0 mm - - -
1787928070 23.33° C 39% 955.8 hPa 0 mm - - -
1787927770 23.33° C 39% 955.9 hPa 0 mm - - -
1787927468 23.33° C 40% 955.9 hPa 0 mm - - -
1787927169 23.33° C 40% 956 hPa 0 mm - - -
1787926869 23.33° C 40% 956 hPa 0 mm - - -
1787926569 23.33° C 39% 956 hPa 0 mm - - -
1787926269 23.33° C 39% 956 hPa 0 mm - - -
1787926094 23.89° C 39% 956 hPa 0 mm - - -
1787925670 23.33° C 39% 956.2 hPa 0 mm - - -
1787925369 23.89° C 38% 956 hPa 0 mm - - -
1787925069 24.44° C 37% 956.1 hPa 0 mm - - -
1787924770 24.44° C 38% 956.1 hPa 0 mm - - -
1787924469 24.44° C 37% 956.2 hPa 0 mm - - -
1787924169 24.44° C 37% 956.2 hPa 0 mm - - -
1787923869 24.44° C 37% 956.2 hPa 0 mm - - -
1787923567 24.44° C 38% 956.1 hPa 0 mm - - -
1787923266 24.44° C 38% 956.3 hPa 0 mm - - -
1787922967 23.89° C 38% 956.2 hPa 0 mm - - -
1787922667 24.44° C 37% 956.2 hPa 0 mm - - -
1787922366 23.89° C 39% 956.2 hPa 0 mm - - -
1787922065 23.89° C 38% 956.2 hPa 0 mm - - -
1787921766 23.33° C 40% 956.2 hPa 0 mm - - -
1787921558 22.78° C 39% 956 hPa 0 mm - - -

* Rain latest hour (hover to see other rain measurements)
** Current wind speed in m/s (hover to see current wind gust speed)